Lydd, United Kingdom

12:09 PM BST on April 29, 2017 (GMT +0100)
Lydd

Weather History for EGMD - January, 2014

Change the Weather History Date:

Wednesday, January 8, 2014

  Actual Average Record
Temperature  
Mean Temperature 52 °F -  
Max Temperature 53 °F - - ()
Min Temperature 50 °F - - ()
Degree Days  
Heating Degree Days 14    
Growing Degree Days 2 (Base 50)    
Moisture  
Dew Point 49 °F    
Average Humidity 91    
Maximum Humidity 94    
Minimum Humidity 88    
Precipitation  
Precipitation 0.00 in - - ()
Sea Level Pressure  
Sea Level Pressure 29.99 in    
Wind  
Wind Speed 15 mph ()    
Max Wind Speed 22 mph    
Max Gust Speed -    
Visibility 6.2 miles    
Events Rain    
T = Trace of Precipitation, MM = Missing Value Source: Averaged Metar Reports

Daily Weather History Graph

Daily Weather History Graph

Search for Another Location

Airport or City:

Trip Planner

Search our weather history database for the weather conditions in past years. The results will help you decide how hot, cold, wet, or windy it might be!

Date:

Astronomy

Jan. 08, 2014 Rise Set
Actual Time 7:57 AM GMT 4:08 PM GMT
Civil Twilight 7:18 AM GMT 4:47 PM GMT
Nautical Twilight 6:36 AM GMT 5:29 PM GMT
Astronomical Twilight 5:56 AM GMT 6:09 PM GMT
Moon 11:16 AM GMT (1/8) 12:20 AM GMT (1/8)
Length of Visible Light 9h 28m
Length of Day
8h 11m
First Quarter, 53% of the Moon is Illuminated
Jan 8
First Quarter
Jan 16
Full
Jan 24
Last Quarter
Jan 30
New
Feb 6
First Quarter

Hourly Weather History & Observations

Time (GMT) Temp. Dew Point Humidity Pressure Visibility Wind Dir Wind Speed Gust Speed Precip Events Conditions
7:50 AM 50.0 °F 48.2 °F 94% 29.98 in 6.2 mi SW 18.4 mph - N/A   Partly Cloudy
8:20 AM 50.0 °F 48.2 °F 94% 29.98 in 6.2 mi SW 18.4 mph - N/A   Scattered Clouds
8:50 AM 50.0 °F 48.2 °F 94% 30.01 in 6.2 mi SW 17.3 mph - N/A   Partly Cloudy
9:20 AM 51.8 °F 48.2 °F 88% 30.01 in 6.2 mi SW 18.4 mph - N/A   Partly Cloudy
9:50 AM 51.8 °F 48.2 °F 88% 30.04 in 6.2 mi SW 20.7 mph - N/A   Scattered Clouds
10:20 AM 51.8 °F 50.0 °F 94% 30.04 in 6.2 mi SW 20.7 mph - N/A   Partly Cloudy
10:50 AM 51.8 °F 50.0 °F 94% 30.04 in 6.2 mi SW 16.1 mph - N/A   Partly Cloudy
11:20 AM 53.6 °F 50.0 °F 88% 30.04 in 6.2 mi SW 17.3 mph - N/A   Partly Cloudy
11:50 AM 53.6 °F 50.0 °F 88% 30.04 in 6.2 mi SW 21.9 mph - N/A   Partly Cloudy
12:20 PM 51.8 °F 50.0 °F 94% 30.04 in 6.2 mi SW 19.6 mph - N/A   Partly Cloudy
12:50 PM 51.8 °F 48.2 °F 88% 30.01 in 6.2 mi SW 15.0 mph - N/A   Partly Cloudy
1:20 PM 51.8 °F 48.2 °F 88% 30.01 in 6.2 mi SW 16.1 mph - N/A   Partly Cloudy
1:50 PM 51.8 °F 48.2 °F 88% 30.01 in 6.2 mi SW 18.4 mph - N/A   Partly Cloudy
2:20 PM 51.8 °F 48.2 °F 88% 30.01 in 6.2 mi SSW 15.0 mph - N/A   Partly Cloudy
2:50 PM 51.8 °F 48.2 °F 88% 30.01 in 6.2 mi SSW 12.7 mph - N/A   Scattered Clouds
3:20 PM 50.0 °F 48.2 °F 94% 29.98 in 6.2 mi SSW 9.2 mph - N/A   Mostly Cloudy
3:50 PM 50.0 °F 48.2 °F 94% 29.98 in 6.2 mi SSW 8.1 mph - N/A   Scattered Clouds
4:20 PM 50.0 °F 48.2 °F 94% 29.98 in 6.2 mi South 8.1 mph - N/A   Scattered Clouds
4:50 PM 50.0 °F 48.2 °F 94% 29.95 in 6.2 mi SSE 11.5 mph - N/A   Scattered Clouds
5:20 PM 50.0 °F 48.2 °F 94% 29.95 in 6.2 mi South 10.4 mph - N/A Rain Light Rain
5:50 PM 50.0 °F 48.2 °F 94% 29.92 in 6.2 mi SSE 13.8 mph - N/A   Partly Cloudy
6:20 PM 51.8 °F 48.2 °F 88% 29.92 in 6.2 mi SSE 15.0 mph - N/A   Partly Cloudy
6:50 PM 51.8 °F 48.2 °F 88% 29.92 in 6.2 mi SSE 13.8 mph - N/A   Partly Cloudy